TimeEDT,TemperatureF,Dew PointF,Humidity,Sea Level PressureIn,VisibilityMPH,Wind Direction,Wind SpeedMPH,Gust SpeedMPH,PrecipitationIn,Events,Conditions,WindDirDegrees,DateUTC
12:56 AM,52.9,50.9,93,29.74,6.0,ENE,11.5,-,0.01,,Overcast,70,2012-10-02 04:56:00
1:56 AM,52.9,50.9,93,29.72,5.0,ENE,13.8,-,N/A,,Overcast,70,2012-10-02 05:56:00
2:56 AM,52.9,50.9,93,29.73,5.0,ENE,11.5,-,N/A,,Overcast,70,2012-10-02 06:56:00
3:56 AM,52.9,50.9,93,29.72,3.0,East,10.4,-,N/A,,Overcast,80,2012-10-02 07:56:00
4:10 AM,53.6,51.8,94,29.73,1.8,ENE,8.1,-,N/A,,Overcast,70,2012-10-02 08:10:00
4:27 AM,53.6,51.8,94,29.73,2.5,East,6.9,-,N/A,,Overcast,80,2012-10-02 08:27:00
4:37 AM,53.6,51.8,94,29.73,3.0,ENE,8.1,-,N/A,,Overcast,70,2012-10-02 08:37:00
4:56 AM,52.9,52.0,97,29.73,3.0,East,8.1,-,N/A,,Overcast,80,2012-10-02 08:56:00
5:56 AM,54.0,52.0,93,29.73,3.0,ENE,5.8,-,N/A,,Overcast,60,2012-10-02 09:56:00
6:26 AM,53.6,51.8,94,29.75,2.5,East,5.8,-,N/A,,Overcast,80,2012-10-02 10:26:00
6:56 AM,54.0,52.9,96,29.75,1.8,ENE,6.9,-,N/A,,Overcast,70,2012-10-02 10:56:00
7:05 AM,53.6,53.6,100,29.75,1.0,East,8.1,-,N/A,,Overcast,80,2012-10-02 11:05:00
7:14 AM,55.4,53.6,94,29.76,0.8,East,8.1,-,N/A,,Overcast,80,2012-10-02 11:14:00
7:56 AM,54.9,54.0,97,29.77,0.8,East,8.1,-,N/A,,Overcast,90,2012-10-02 11:56:00
8:03 AM,55.4,53.6,94,29.77,1.0,East,5.8,-,N/A,,Overcast,80,2012-10-02 12:03:00
8:39 AM,55.4,55.4,100,29.77,1.2,ESE,8.1,-,N/A,,Overcast,120,2012-10-02 12:39:00
8:56 AM,56.8,55.9,97,29.78,1.5,SE,6.9,-,N/A,,Overcast,140,2012-10-02 12:56:00
9:43 AM,57.2,57.2,100,29.80,2.0,East,5.8,-,N/A,,Overcast,80,2012-10-02 13:43:00
9:56 AM,57.9,56.8,96,29.79,1.8,East,6.9,-,N/A,,Overcast,80,2012-10-02 13:56:00
10:20 AM,59.0,57.2,94,29.80,2.0,East,5.8,-,N/A,,Overcast,80,2012-10-02 14:20:00
10:28 AM,59.0,57.2,94,29.80,1.8,ENE,6.9,-,N/A,,Overcast,70,2012-10-02 14:28:00
10:42 AM,60.8,57.2,88,29.80,2.0,East,5.8,-,N/A,,Overcast,90,2012-10-02 14:42:00
10:56 AM,61.0,59.0,93,29.80,2.5,ENE,6.9,-,N/A,,Overcast,70,2012-10-02 14:56:00
11:05 AM,62.6,59.0,88,29.79,2.5,ENE,6.9,-,N/A,,Overcast,60,2012-10-02 15:05:00
11:12 AM,62.6,59.0,88,29.79,3.0,ENE,8.1,-,N/A,,Overcast,70,2012-10-02 15:12:00
11:40 AM,64.4,60.8,88,29.79,5.0,East,4.6,-,N/A,,Overcast,100,2012-10-02 15:40:00
11:56 AM,64.9,61.0,87,29.79,5.0,East,5.8,-,N/A,,Overcast,100,2012-10-02 15:56:00
12:56 PM,66.9,61.9,84,29.78,5.0,NE,6.9,-,N/A,,Haze,50,2012-10-02 16:56:00
1:18 PM,66.2,62.6,88,29.79,5.0,East,6.9,-,N/A,,Haze,80,2012-10-02 17:18:00
1:28 PM,66.2,62.6,88,29.79,3.0,ENE,6.9,-,N/A,,Mostly Cloudy,70,2012-10-02 17:28:00
1:33 PM,66.2,62.6,88,29.78,1.8,NE,5.8,-,N/A,,Mostly Cloudy,40,2012-10-02 17:33:00
1:41 PM,66.2,62.6,88,29.78,2.0,NE,5.8,-,N/A,,Overcast,40,2012-10-02 17:41:00
1:56 PM,65.8,63.0,90,29.78,3.0,NE,5.8,-,N/A,,Overcast,40,2012-10-02 17:56:00
2:56 PM,65.8,61.9,87,29.77,4.0,NW,6.9,-,N/A,,Overcast,320,2012-10-02 18:56:00
3:03 PM,64.4,62.6,94,29.79,1.8,WSW,6.9,-,0.09,,Overcast,240,2012-10-02 19:03:00
3:05 PM,64.4,62.6,94,29.78,1.2,Variable,3.5,-,0.10,,Overcast,0,2012-10-02 19:05:00
3:09 PM,64.4,64.4,100,29.78,1.0,NW,8.1,-,0.10,,Overcast,320,2012-10-02 19:09:00
3:13 PM,64.4,64.4,100,29.78,1.5,NW,6.9,-,0.10,,Overcast,320,2012-10-02 19:13:00
3:15 PM,64.4,64.4,100,29.78,2.0,NW,8.1,-,0.10,,Mostly Cloudy,320,2012-10-02 19:15:00
3:23 PM,66.2,64.4,94,29.77,3.0,North,10.4,-,0.10,,Mostly Cloudy,350,2012-10-02 19:23:00
3:56 PM,66.9,63.0,87,29.78,4.0,NNW,8.1,-,0.10,,Clear,340,2012-10-02 19:56:00
4:04 PM,66.2,64.4,94,29.78,4.0,NNW,9.2,-,N/A,,Scattered Clouds,340,2012-10-02 20:04:00
4:13 PM,66.2,62.6,88,29.79,4.0,NNW,5.8,-,N/A,,Mostly Cloudy,330,2012-10-02 20:13:00
4:34 PM,66.2,62.6,88,29.80,4.0,NW,6.9,-,N/A,,Mostly Cloudy,320,2012-10-02 20:34:00
4:56 PM,65.8,61.9,87,29.79,4.0,NNW,8.1,-,N/A,,Overcast,330,2012-10-02 20:56:00
5:56 PM,64.9,61.0,87,29.81,6.0,North,5.8,-,N/A,,Overcast,350,2012-10-02 21:56:00
6:56 PM,63.9,59.9,87,29.84,6.0,North,5.8,-,N/A,,Partly Cloudy,360,2012-10-02 22:56:00
7:56 PM,61.0,59.0,93,29.85,7.0,North,3.5,-,N/A,,Mostly Cloudy,360,2012-10-02 23:56:00
8:40 PM,57.2,57.2,100,29.87,1.0,NE,3.5,-,N/A,,Clear,50,2012-10-03 00:40:00
8:43 PM,57.2,57.2,100,29.87,0.5,Calm,Calm,-,N/A,Fog,Fog,0,2012-10-03 00:43:00
8:56 PM,59.0,56.8,93,29.87,0.2,Calm,Calm,-,N/A,Fog,Fog,0,2012-10-03 00:56:00
9:05 PM,60.8,59.0,94,29.88,0.5,NE,5.8,-,N/A,Fog,Fog,50,2012-10-03 01:05:00
9:08 PM,60.8,59.0,94,29.88,1.5,NE,5.8,-,N/A,,Mostly Cloudy,40,2012-10-03 01:08:00
9:15 PM,60.8,57.2,88,29.88,6.0,Calm,Calm,-,N/A,,Mostly Cloudy,0,2012-10-03 01:15:00
9:56 PM,59.0,56.8,93,29.88,5.0,NE,3.5,-,N/A,,Mostly Cloudy,50,2012-10-03 01:56:00
10:21 PM,57.2,55.4,94,29.90,2.5,East,4.6,-,N/A,,Partly Cloudy,90,2012-10-03 02:21:00
10:45 PM,57.2,55.4,94,29.90,3.0,East,4.6,-,N/A,,Mostly Cloudy,90,2012-10-03 02:45:00
10:56 PM,57.9,56.8,96,29.91,2.5,Variable,6.9,-,N/A,,Overcast,0,2012-10-03 02:56:00
11:00 PM,59.0,57.2,94,29.92,3.0,WSW,10.4,-,N/A,,Mostly Cloudy,240,2012-10-03 03:00:00
11:22 PM,60.8,59.0,94,29.92,5.0,Calm,Calm,-,N/A,,Mostly Cloudy,0,2012-10-03 03:22:00
11:43 PM,60.8,59.0,94,29.92,4.0,Calm,Calm,-,N/A,,Overcast,0,2012-10-03 03:43:00
11:56 PM,59.9,59.0,97,29.90,4.0,Calm,Calm,-,N/A,,Mostly Cloudy,0,2012-10-03 03:56:00